Terminal Aerodrome Forecast
Issued by NWS

Home | Current Version | Previous Version | Text Only | Print | Product List | Glossary On
Versions: 1 2 3 4 5 6 7 8 9 10 11 12 13 14 15 16 17 18 19 20 21 22 23 24 25 26
000
FTUS44 KCRP 160530
TAFLRD
TAF
KLRD 160530Z 1606/1706 14015G25KT P6SM SCT250
     FM160900 16008KT P6SM SCT020 BKN250
      TEMPO 1609/1612 BKN020
     FM161500 16015G22KT P6SM SCT030 BKN250
     FM170000 14010KT P6SM VCSH SCT020 BKN250=

USA.gov is the U.S. government's official web portal to all federal, state and local government web resources and services.